Wind_Speed
19 20 21 22 22 22 22 22 21 21 22 21 21 21 20 20 19 20 20 20 21 21 21 21 21 22 22 22 22 22 23 23 23 22 22 22 23 23 23 24 24 24 25
21 22 22 23 24 24 24 24 23 22 23 22 22 22 21 20 20 20 20 21 22 23 23 23 23 23 24 24 24 24 24 24 24 23 24 24 24 25 24 25 25 26 26
23 23 24 25 25 26 25 25 24 24 24 23 22 22 21 21 21 22 22 23 24 24 25 24 24 25 25 26 26 26 26 25 25 25 25 26 26 26 26 27 27 27 27
25 25 25 25 26 25 26 25 25 25 24 24 23 23 23 23 23 23 23 25 25 25 26 26 26 26 26 26 26 26 26 26 26 26 26 27 28 28 28 28 29 29 28
26 26 26 26 26 26 26 25 24 24 24 24 25 25 25 25 25 25 25 26 27 27 27 28 27 27 26 27 27 26 27 27 27 27 27 28 29 29 29 29 28 28 28
27 27 27 27 26 26 26 25 25 25 24 25 25 26 26 26 26 26 27 27 28 27 27 28 28 28 27 27 26 27 27 27 27 27 27 27 28 29 29 29 29 29 29
27 27 27 27 27 26 26 25 25 25 25 25 25 25 26 27 27 28 28 28 29 29 29 29 28 28 28 28 28 28 27 27 27 27 27 28 29 29 29 30 31 31 31
27 27 28 28 28 28 27 27 26 26 26 26 26 26 27 28 29 29 30 29 30 30 30 30 29 29 29 29 29 28 28 28 29 29 29 29 29 29 30 31 31 32 31
28 29 30 30 29 29 29 28 28 27 27 28 29 29 28 29 29 30 30 31 31 31 32 31 31 30 29 29 29 29 29 30 30 30 30 30 30 31 31 31 31 31 31
29 30 31 31 30 30 30 30 29 29 29 29 30 29 29 30 31 31 31 32 32 32 33 32 32 31 30 29 29 29 30 30 30 31 30 30 30 30 31 31 31 31 30
31 31 32 31 31 30 30 30 30 30 30 30 30 30 30 31 32 32 32 33 33 33 33 33 32 30 30 30 30 30 30 31 30 30 30 30 30 30 30 29 29 29 29
32 32 31 31 31 31 30 30 30 31 30 30 30 31 31 32 33 33 33 33 32 32 32 31 30 30 30 30 29 30 30 30 29 29 29 29 29 29 28 29 29 29 29
32 32 32 31 30 30 30 30 30 30 30 30 31 31 31 31 31 31 31 30 30 30 30 30 29 29 29 28 28 28 28 28 27 27 27 27 27 27 27 28 28 28 28
32 32 32 31 30 30 30 30 30 30 30 31 31 30 29 29 30 30 30 30 30 29 29 29 28 28 28 27 26 27 26 26 26 26 25 25 25 25 26 27 27 27 27
32 31 30 30 30 30 30 30 30 30 30 30 30 30 29 29 30 31 30 30 29 29 29 27 27 27 27 26 25 25 25 25 25 25 24 24 24 25 26 27 27 28 28
31 30 30 30 30 30 31 30 30 30 30 30 30 31 30 30 30 31 30 30 29 28 28 27 26 26 25 25 25 25 25 25 25 24 24 23 24 25 25 25 25 26 26
31 31 31 31 30 30 31 30 30 30 30 30 31 31 31 31 30 30 30 29 29 28 27 27 26 25 25 25 24 24 25 25 24 23 23 23 24 24 24 24 25 25 25
32 32 33 32 31 31 30 31 30 29 30 30 31 31 31 30 30 30 28 27 27 25 25 25 25 25 25 24 24 24 24 24 24 24 25 25 25 25 25 25 25 25 25
33 33 32 32 32 31 31 31 30 29 29 30 30 30 30 29 29 29 28 28 26 26 25 24 24 24 24 24 24 24 24 24 24 25 25 25 25 25 25 25 25 24 25
33 33 32 31 31 31 31 30 30 29 29 29 28 28 28 28 28 28 27 27 26 25 25 25 25 25 24 25 25 25 25 25 25 25 25 25 24 23 23 23 22 23 23
33 32 32 31 30 30 30 30 29 29 28 28 27 27 28 28 27 26 25 25 25 25 25 25 25 24 24 24 24 24 24 24 23 23 23 23 22 21 21 21 21 22 22
33 32 31 31 30 29 29 29 29 28 28 27 27 26 26 26 26 25 24 24 25 25 26 25 23 23 24 23 23 23 23 22 22 22 21 21 21 21 21 21 21 21 21
33 32 31 30 29 29 28 28 28 28 27 26 26 26 26 27 26 25 25 25 25 25 25 24 23 22 23 23 22 22 22 22 21 21 20 20 21 21 22 22 21 21 20
31 31 30 29 28 28 28 28 27 26 26 26 26 26 27 27 26 25 25 24 24 24 24 23 23 22 22 22 22 21 21 21 21 21 20 20 21 21 22 22 21 20 19
30 30 29 28 27 26 26 26 25 25 25 25 26 27 27 27 26 26 25 25 25 24 24 23 23 23 22 22 22 22 22 21 21 21 21 21 21 21 21 21 21 20 20
28 28 27 27 26 26 26 26 26 26 26 26 26 27 27 26 25 25 25 24 24 24 24 24 24 24 23 22 22 22 22 21 21 20 20 20 20 20 20 20 20 20 20
Wind_Direction
303 306 307 308 308 307 307 307 308 307 304 302 302 303 302 300 299 297 294 293 294 292 290 290 290 289 285 282 281 280 278 278 278 276 274 274 274 275 274 275 274 273 271
302 304 304 305 307 307 306 305 305 304 304 300 300 300 300 298 297 295 295 293 293 293 290 288 288 287 287 284 281 279 277 276 275 275 274 273 272 272 273 275 274 273 271
299 300 301 303 304 305 306 304 302 301 302 302 301 299 300 299 298 297 297 296 293 292 290 286 285 285 286 287 283 280 278 276 274 274 273 272 271 270 272 273 273 272 271
298 298 300 302 303 305 306 302 299 299 299 300 301 301 298 297 297 297 297 296 294 291 289 287 286 286 286 286 284 281 279 278 275 274 273 272 272 271 272 273 273 273 272
298 297 299 300 301 302 303 301 298 297 297 298 298 300 299 298 298 297 296 295 295 293 291 289 289 287 286 285 283 282 280 278 278 276 275 275 274 273 272 273 275 274 273
297 297 297 298 299 299 299 299 298 299 297 297 298 298 298 297 297 297 296 296 295 294 294 292 290 288 286 284 283 282 281 280 280 279 277 276 276 274 274 275 275 275 274
296 297 297 298 298 297 297 298 299 301 301 299 298 299 298 297 297 296 296 296 296 295 294 293 290 289 286 284 282 281 281 281 280 279 278 277 276 274 275 275 274 273 273
297 296 296 296 297 296 295 296 297 299 299 298 298 299 298 298 297 296 296 295 295 296 295 293 291 289 287 285 284 283 282 280 280 279 278 277 278 277 276 276 274 273 272
296 296 296 297 297 295 295 294 296 298 298 299 300 299 298 297 297 296 296 296 296 295 294 293 291 289 285 284 282 282 282 281 281 281 280 278 278 278 277 275 275 273 272
295 295 296 296 296 296 295 295 296 296 297 298 298 298 298 297 297 297 297 296 296 295 293 291 290 288 285 284 283 283 283 283 283 283 281 280 280 279 278 277 276 274 273
292 292 293 294 295 295 294 293 293 294 296 297 298 297 297 297 297 296 295 295 294 294 293 291 290 288 284 284 284 284 284 283 282 282 280 279 278 278 278 277 276 275 274
290 290 291 292 294 294 293 293 293 294 295 297 297 298 298 298 297 297 297 296 295 294 294 293 290 289 287 285 285 284 284 283 283 281 279 279 278 277 277 277 276 275 275
290 290 291 290 291 292 291 291 292 293 294 296 297 298 300 300 300 299 299 298 297 295 294 292 291 290 288 286 285 286 285 284 283 281 280 279 279 277 277 276 276 277 277
289 289 289 289 288 289 289 289 290 291 293 295 297 299 300 301 301 300 298 298 297 296 295 293 292 292 290 287 284 283 283 283 282 281 282 280 278 277 276 276 277 276 276
288 288 288 288 289 289 289 290 291 291 293 295 297 299 301 302 302 300 298 297 296 295 294 293 292 291 290 288 286 283 282 284 284 281 280 280 280 279 279 278 278 277 277
286 286 286 287 288 289 289 290 292 293 294 295 297 298 299 301 303 302 299 296 295 294 293 293 292 291 290 289 286 285 284 285 285 282 279 281 282 282 281 280 280 279 278
285 285 284 285 286 288 289 289 291 292 293 295 296 297 298 299 301 301 299 296 294 293 292 292 291 290 290 290 288 286 285 284 283 281 281 282 284 284 283 281 280 279 279
285 284 283 283 285 287 287 288 289 291 292 294 296 296 297 297 298 299 299 297 296 295 293 293 291 289 290 290 289 287 285 283 281 281 282 283 284 284 283 282 280 278 278
284 283 282 282 283 285 287 287 287 289 292 294 295 296 297 297 297 297 297 295 295 296 296 295 292 290 290 290 289 289 287 284 282 283 283 283 283 283 284 282 280 279 279
284 283 282 280 280 283 285 287 288 289 292 294 295 296 298 299 299 297 295 294 294 296 295 294 293 291 291 291 291 291 289 286 283 283 283 283 283 284 284 282 280 280 280
283 283 283 282 280 281 283 284 285 287 289 292 294 295 297 299 300 300 299 297 296 297 297 295 295 294 293 293 293 292 292 291 288 286 284 283 283 283 284 281 280 281 282
281 281 282 283 280 281 281 282 283 285 287 290 293 295 296 298 298 298 300 300 298 297 298 298 296 295 296 294 294 294 294 292 290 287 284 282 281 282 284 281 281 283 284
278 278 279 280 279 278 279 282 283 284 285 286 289 293 295 297 298 297 298 300 300 298 297 296 297 296 296 297 296 295 295 292 289 286 284 282 282 282 282 281 281 284 283
278 279 280 280 279 278 278 280 282 282 283 286 288 291 294 296 295 295 297 298 298 297 295 294 295 294 294 296 296 295 295 293 289 286 286 284 282 282 282 281 280 281 281
278 277 277 278 279 279 278 279 279 282 285 287 289 291 293 294 293 294 295 295 295 295 295 295 295 293 292 294 293 293 294 293 290 285 284 283 283 283 282 281 280 280 280
279 276 274 275 276 277 278 278 279 282 284 286 289 291 291 293 295 296 295 295 294 294 295 296 296 294 292 291 292 292 291 290 289 285 284 283 282 282 282 282 280 280 280
Height
5880 5878 5876 5875 5872 5871 5869 5866 5864 5862 5859 5857 5855 5852 5850 5848 5846 5844 5843 5841 5838 5836 5835 5833 5831 5830 5828 5827 5825 5824 5823 5822 5822 5822 5821 5820 5820 5819 5818 5817 5817 5816 5816
5875 5873 5871 5869 5867 5865 5863 5860 5858 5856 5853 5851 5849 5847 5844 5842 5840 5838 5836 5834 5832 5829 5827 5825 5824 5823 5821 5819 5817 5816 5815 5814 5814 5813 5813 5813 5812 5811 5811 5810 5809 5809 5808
5870 5868 5866 5863 5861 5859 5857 5854 5852 5849 5847 5845 5843 5841 5838 5836 5834 5832 5830 5827 5824 5822 5820 5818 5817 5815 5813 5811 5810 5808 5807 5806 5805 5805 5804 5804 5804 5803 5803 5802 5801 5800 5800
5864 5862 5859 5857 5855 5852 5850 5847 5844 5843 5841 5839 5836 5834 5832 5829 5827 5825 5823 5820 5817 5814 5812 5810 5808 5806 5804 5803 5801 5800 5799 5798 5797 5796 5796 5795 5795 5794 5794 5793 5792 5791 5791
5858 5856 5853 5851 5849 5846 5844 5841 5839 5836 5834 5832 5830 5828 5825 5823 5820 5818 5815 5813 5810 5807 5804 5802 5800 5798 5796 5794 5792 5791 5790 5789 5788 5787 5787 5786 5786 5785 5784 5784 5783 5782 5781
5852 5849 5847 5844 5842 5839 5837 5835 5832 5830 5827 5825 5823 5820 5818 5815 5813 5810 5808 5805 5802 5799 5797 5794 5792 5789 5787 5785 5784 5783 5781 5780 5779 5778 5778 5777 5776 5775 5775 5774 5774 5773 5773
5845 5843 5840 5837 5835 5833 5830 5828 5825 5822 5820 5818 5816 5813 5810 5808 5805 5802 5799 5797 5794 5791 5788 5786 5783 5781 5779 5777 5775 5774 5772 5771 5770 5770 5769 5768 5767 5766 5765 5765 5764 5764 5763
5838 5835 5833 5830 5828 5825 5822 5820 5817 5815 5813 5811 5808 5805 5803 5800 5797 5794 5791 5788 5785 5782 5780 5777 5774 5772 5769 5767 5766 5764 5763 5762 5761 5760 5759 5758 5757 5756 5756 5755 5754 5754 5753
5830 5828 5825 5823 5820 5818 5815 5812 5810 5808 5805 5803 5800 5797 5794 5792 5788 5785 5782 5779 5776 5773 5770 5767 5764 5762 5760 5758 5757 5755 5754 5753 5751 5750 5749 5748 5747 5746 5745 5745 5744 5744 5743
5823 5820 5818 5815 5813 5810 5807 5805 5802 5800 5797 5795 5792 5789 5786 5783 5780 5776 5773 5770 5767 5764 5761 5758 5755 5752 5750 5748 5747 5746 5744 5743 5741 5740 5739 5738 5737 5736 5735 5734 5734 5734 5733
5815 5812 5810 5807 5804 5802 5799 5797 5794 5792 5789 5786 5783 5780 5777 5774 5771 5767 5763 5760 5757 5754 5751 5748 5745 5742 5740 5738 5737 5736 5734 5733 5731 5730 5729 5728 5727 5726 5725 5724 5724 5723 5723
5806 5803 5801 5799 5796 5793 5791 5788 5785 5783 5780 5777 5774 5771 5768 5765 5761 5757 5753 5750 5746 5744 5741 5738 5735 5733 5731 5729 5727 5726 5724 5722 5721 5720 5719 5718 5717 5717 5716 5715 5714 5714 5713
5796 5794 5792 5790 5787 5785 5782 5779 5776 5774 5771 5768 5765 5762 5759 5755 5751 5748 5744 5740 5737 5734 5732 5729 5726 5724 5721 5720 5718 5716 5715 5713 5712 5711 5710 5709 5708 5707 5706 5706 5705 5704 5704
5788 5785 5782 5780 5777 5775 5772 5770 5767 5765 5762 5759 5756 5753 5750 5747 5743 5740 5736 5732 5729 5726 5723 5720 5718 5715 5713 5711 5709 5707 5705 5704 5703 5702 5701 5700 5699 5698 5697 5696 5696 5695 5695
5778 5776 5773 5771 5768 5765 5763 5761 5759 5756 5754 5751 5748 5745 5742 5739 5735 5731 5727 5724 5720 5718 5714 5712 5709 5707 5704 5702 5700 5699 5697 5696 5695 5693 5692 5692 5691 5690 5689 5688 5687 5686 5685
5768 5766 5764 5762 5759 5757 5754 5752 5749 5747 5745 5742 5739 5736 5733 5730 5726 5723 5719 5715 5712 5709 5706 5704 5701 5699 5697 5695 5693 5691 5690 5688 5687 5685 5684 5684 5683 5682 5680 5679 5678 5678 5677
5759 5757 5755 5752 5750 5748 5745 5743 5741 5738 5735 5733 5730 5727 5724 5721 5718 5714 5711 5707 5704 5701 5698 5696 5693 5691 5689 5687 5685 5683 5682 5680 5679 5678 5677 5676 5675 5674 5672 5671 5670 5669 5668
5749 5747 5745 5743 5740 5738 5736 5734 5732 5729 5727 5724 5722 5719 5716 5713 5710 5706 5703 5699 5696 5693 5690 5688 5686 5684 5681 5679 5677 5676 5674 5673 5672 5670 5669 5668 5667 5666 5664 5663 5662 5661 5660
5738 5737 5735 5733 5731 5729 5726 5724 5723 5721 5718 5716 5713 5711 5708 5704 5701 5698 5695 5692 5689 5686 5683 5681 5678 5676 5674 5672 5670 5668 5667 5665 5664 5662 5661 5660 5659 5657 5656 5655 5654 5653 5652
5728 5726 5724 5722 5721 5719 5717 5715 5714 5712 5710 5708 5705 5702 5699 5696 5693 5690 5687 5685 5682 5679 5677 5674 5672 5669 5667 5665 5663 5661 5659 5657 5656 5654 5653 5652 5650 5649 5648 5647 5646 5645 5644
5717 5715 5714 5712 5711 5709 5708 5706 5705 5703 5701 5699 5697 5694 5691 5688 5685 5682 5679 5677 5674 5672 5669 5667 5665 5662 5660 5658 5656 5654 5651 5650 5648 5646 5645 5644 5642 5641 5640 5640 5639 5638 5637
5706 5705 5703 5702 5701 5700 5698 5697 5696 5694 5692 5690 5688 5686 5683 5680 5678 5675 5672 5669 5667 5664 5662 5659 5657 5655 5653 5651 5649 5646 5644 5642 5640 5639 5638 5636 5635 5634 5633 5632 5632 5631 5630
5695 5694 5693 5692 5690 5690 5689 5688 5686 5685 5683 5682 5680 5678 5676 5673 5670 5668 5665 5663 5660 5657 5655 5652 5650 5648 5645 5644 5642 5639 5637 5635 5633 5632 5630 5629 5628 5627 5626 5625 5624 5623 5623
5685 5684 5683 5682 5680 5680 5679 5678 5677 5676 5675 5673 5672 5670 5668 5665 5663 5660 5658 5655 5653 5650 5647 5645 5643 5640 5638 5637 5634 5632 5630 5628 5626 5625 5623 5622 5622 5620 5619 5618 5617 5616 5616
5675 5674 5673 5672 5672 5671 5670 5670 5669 5668 5667 5665 5664 5662 5659 5657 5655 5652 5650 5647 5645 5642 5640 5637 5635 5633 5631 5629 5627 5625 5623 5621 5619 5618 5616 5615 5614 5613 5612 5611 5610 5609 5609
5666 5665 5664 5663 5663 5663 5662 5661 5661 5660 5659 5657 5656 5654 5651 5649 5647 5644 5642 5639 5637 5635 5632 5630 5627 5625 5624 5622 5620 5618 5616 5614 5612 5611 5609 5608 5607 5607 5606 5605 5604 5603 5602